Regional Weather Roundup
Issued by NWS

Home | Current Version | Previous Version | Graphics & Text | Print | Product List | Glossary On
Versions: 1 2 3 4 5 6 7 8 9 10 11 12 13 14 15 16 17 18 19 20 21 22 23 24 25 26 27 28 29 30 31 32 33 34 35 36 37 38 39 40 41 42 43 44 45 46 47 48 49 50
000
ASUS43 KMPX 310101
RWRMN
WEATHER ROUNDUP FOR MINNESOTA
NATIONAL WEATHER SERVICE TWIN CITIES/CHANHASSEN MN
800 PM CDT THU MAR 30 2017


NOTE: "FAIR" INDICATES FEW OR NO CLOUDS BELOW 12,000 FEET WITH NO
SIGNIFICANT WEATHER AND/OR OBSTRUCTIONS TO VISIBILITY. N/A MEANS
CURRENT SKY AND/OR WEATHER CONDITIONS ARE NOT AVAILABLE.

MNZ060>063-068>070-310200-
   Twin Cities Metro

CITY           SKY/WX    TMP DP  RH WIND       PRES   REMARKS
TWIN CITIES    CLOUDY    48  33  56 NE10      29.82S
ST PAUL        CLOUDY    47  35  63 NE7       29.83S
CRYSTAL        CLOUDY    47  32  56 NE6       29.82R
BLAINE         CLOUDY    48  36  61 NE5       29.83R
LAKEVILLE      CLOUDY    43  36  75 NE8       29.81S
EDEN PRAIRIE   CLOUDY    48  33  56 NE9       29.80S
SOUTH ST PAUL  CLOUDY    47  33  58 NE7       29.82R
LAKE ELMO      CLOUDY    46  34  61 NE7       29.83S
$$
MNZ001>005-007-008-013>017-022>024-027-028-310200-
   Northwest Minnesota

CITY           SKY/WX    TMP DP  RH WIND       PRES   REMARKS
BEMIDJI        CLEAR     45  27  48 CALM      29.87S
HALLOCK        CLOUDY    48  45  87 S5        29.90R
ROSEAU         PTCLDY    46  41  81 E3        29.91R
WARROAD        CLOUDY    43  36  75 CALM      29.91S
THIEF RVR FALL   N/A    N/A N/A N/A MISG        N/A
CROOKSTON      CLEAR     46  43  87 N6        29.89S
FOSSTON        CLEAR     46  30  53 E3        29.88R
DETROIT LAKES  CLEAR     50  28  43 S6        29.87R
MOORHEAD       CLEAR     48  43  81 N5        29.87R
PARK RAPIDS    CLEAR     49  26  41 NE6       29.86R
MAHNOMEN       FAIR      47  33  59 E7        29.86R
$$
MNZ006-009>011-018-025>026-310200-
   North Central Minnesota

CITY           SKY/WX    TMP DP  RH WIND       PRES   REMARKS
BAUDETTE       CLOUDY    47  33  58 N7        29.89R
FLAG ISLAND    CLOUDY    43  34  70 CALM      29.90S
INTL FALLS     CLEAR     43  27  53 E3        29.89S
WASKISH        CLEAR     39  34  81 CALM      29.88S
BIG FORK       CLEAR     48  27  43 E5        29.88S
LONGVILLE      CLEAR     46  25  42 CALM      29.87R
GRAND RAPIDS   CLEAR     47  25  42 SE3       29.90R
CRANE LAKE     CLEAR     37  21  52 CALM      29.93R
ORR            CLEAR     45  16  31 CALM      29.88S
COOK           CLEAR     45  18  33 CALM      29.90S
WALKER         FAIR      48  27  44 NE3       29.86S
$$
MNZ012-019>021-037-310200-
   Northeast Minnesota

CITY           SKY/WX    TMP DP  RH WIND       PRES   REMARKS
DULUTH         PTCLDY    35  25  66 E15       29.91S WCI  25
ELY            CLEAR     41  21  45 E7        29.92R
HIBBING        CLEAR     41  23  48 E8        29.89R
EVELETH        CLEAR     42  23  45 E3        29.92R
DULUTH HARBOR  CLEAR     36  32  87 NE21      29.95R
TWO HARBORS    CLEAR     37  28  70 NE9       29.93R
GRAND MARAIS     N/A     36  31  82 NE12      29.98S
G MARAIS ARPRT CLEAR     34  21  60 NE9       29.94S WCI  26
$$
MNZ029>031-032-039>041-046>048-054>057-064-310200-
   West Central Minnesota

CITY           SKY/WX    TMP DP  RH WIND       PRES   REMARKS
FERGUS FALLS   CLEAR     48  30  49 SE5       29.89R
WHEATON        CLEAR     46  32  57 CALM      29.88R
MORRIS         CLEAR     45  34  65 E3        29.84S
ALEXANDRIA     CLEAR     45  32  60 E3        29.86R
ELBOW LAKE     FAIR      47  34  59 CALM      29.86R
WADENA         CLEAR     46  28  49 CALM      29.85S
GLENWOOD       CLEAR     41  34  75 NE6       29.86R
APPLETON       CLOUDY    48  36  61 NE5       29.85R
BENSON         CLOUDY    48  30  49 CALM      29.86S
ORTONVILLE     CLOUDY    46  36  66 NE5       29.85R
MADISON        CLOUDY    48  39  71 NE7       29.84S
WILLMAR        CLOUDY    48  37  66 E8        29.85R
$$
MNZ033>034-036-042>043-049>051-058-059-310200-
   Central Minnesota

CITY           SKY/WX    TMP DP  RH WIND       PRES   REMARKS
ST CLOUD       CLOUDY    47  34  60 NE10      29.85R
SAUK CENTRE    CLOUDY    47  33  59 NE7       29.85R
PAYNESVILLE    CLOUDY    48  33  57 NE6       29.84S
AITKIN         CLEAR     45  27  49 E9        29.88R
PINE RIVER     CLEAR     45  28  53 E6        29.91R
BRAINERD       CLEAR     46  29  51 E8        29.88R
STAPLES        CLEAR     48  25  40 E3        29.86R
LONG PRAIRIE   FAIR      43  32  65 NE5       29.86R
LITTLE FALLS   CLEAR     45  32  61 NE3       29.86R
LITCHFIELD     CLOUDY    48  37  66 NE6       29.84R
BUFFALO        CLOUDY    46  34  62 NE6       29.84S
MAPLE LAKE     CLOUDY    48  37  65 NE6       29.84S
HUTCHINSON     CLOUDY    46  38  72 NE8       29.84R
$$
MNZ037-044-045-052-053-310200-
   East Central Minnesota

CITY           SKY/WX    TMP DP  RH WIND       PRES   REMARKS
PRINCETON      CLOUDY    48  34  57 N6        29.85S
MORA           CLOUDY    43  32  65 NE7       29.89R
CAMBRIDGE      CLOUDY    48  34  57 N7        29.84R
RUSH CITY      CLOUDY    44  32  62 N8        29.86S
MOOSE LAKE     CLEAR     34  27  75 NE7G18    29.89S WCI  28
CLOQUET        CLEAR     36  21  55 E7        29.91S
MCGREGOR       CLEAR     39  30  70 E6        29.90R
$$
MNZ071>073-080-081-089-090-097-098-310200-
   Southwest Minnesota

CITY           SKY/WX    TMP DP  RH WIND       PRES   REMARKS
MONTEVIDEO     CLOUDY    46  37  71 E7        29.84S
GRANITE FALLS  CLOUDY    48  37  66 NE7       29.85R
CANBY          CLOUDY    47  39  74 CALM      29.85R
MARSHALL       CLOUDY    45  36  70 E8        29.84R
REDWOOD FALLS  CLOUDY    46  36  68 NE5       29.83R
OLIVIA         CLOUDY    46  36  66 NE7       29.83R
PIPESTONE      CLOUDY    43  36  75 E8        29.81R
WINDOM         MOCLDY    41  37  87 NE7       29.81R
WORTHINGTON    CLOUDY    39  36  89 NE15      29.81R
JACKSON          N/A     37  36  93 NE9       29.80R
TRACY          CLOUDY    43  39  85 NE5       29.83R
SLAYTON        CLOUDY    40  38  91 NE7       29.82R
$$
MNZ065>067-074>077-082>085-091>093-310200-
   South Central Minnesota

CITY           SKY/WX    TMP DP  RH WIND       PRES   REMARKS
MANKATO        CLOUDY    43  37  79 NE7       29.81R
NEW ULM        CLOUDY    43  36  75 NE5       29.81R
ST JAMES       CLOUDY    41  37  87 CALM      29.82R
FAIRMONT       CLOUDY    40  37  89 NE12      29.80R
GLENCOE        CLOUDY    46  39  76 NE5       29.81S
FARIBAULT      CLOUDY    43  37  81 NE7       29.80S
OWATONNA       CLOUDY    41  36  81 NE7       29.80R
WASECA         CLOUDY    41  36  81 NE9       29.81R
ALBERT LEA     CLOUDY    39  36  87 NE10      29.78R
$$
MNZ078>079-086>088-094>096-310200-
   Southeast Minnesota

CITY           SKY/WX    TMP DP  RH WIND       PRES   REMARKS
ROCHESTER      CLOUDY    38  36  92 NE16G23   29.78R
RED WING       CLOUDY    45  36  70 E5        29.80S
STANTON        CLOUDY    43  37  77 NE7       29.79S
DODGE CENTER   CLOUDY    39  36  87 NE10G17   29.78R
WINONA         CLOUDY    39  36  87 NE8       29.81R
AUSTIN         CLOUDY    37  36  93 NE12G20   29.78R
PRESTON        CLOUDY    37  34  90 NE9G16    29.77S
$$
ABBREVIATIONS USED IN REMARKS
   TC - TEMPERATURES IN CELSIUS
  WCI - WIND CHILL INDEX
   HX - HEAT INDEX
  VSB - VISIBILITY
$$



USA.gov is the U.S. government's official web portal to all federal, state and local government web resources and services.